UAL2166 KORD-KEWR

Flight info

Callsign UAL2166
Flight time N/A
Altitude 37000
Route DUFEE ELX HAAKK DOXXY SOSIC KEEHO J584 SLT FQM3
Aircraft B738/M-SDE2E3FGHIRWXY/LB1

Departure

Time 2026-05-05 20:56
Airport Chicago O'Hare International Airport (KORD)

Arrival

Time N/A
Airport Newark Liberty International Airport (KEWR)
Time Latitude Longitude Altitude Speed Heading
2026-05-05 20:05 41.97754 -87.90771 668 ft 0 kts 99°
2026-05-05 20:42 41.97755 -87.90784 668 ft 3 kts 101°
2026-05-05 20:42 41.97759 -87.90806 668 ft 3 kts 102°
2026-05-05 20:43 41.97764 -87.90829 668 ft 3 kts 134°
2026-05-05 20:43 41.97779 -87.90840 665 ft 3 kts 180°
2026-05-05 20:43 41.97795 -87.90838 667 ft 1 kts 189°
2026-05-05 20:43 41.97796 -87.90838 667 ft 0 kts 189°
2026-05-05 20:47 41.97784 -87.90841 667 ft 8 kts 189°
2026-05-05 20:47 41.97687 -87.90862 668 ft 13 kts 188°
2026-05-05 20:47 41.97641 -87.90873 668 ft 6 kts 190°
2026-05-05 20:48 41.97597 -87.90884 668 ft 6 kts 194°
2026-05-05 20:48 41.97544 -87.90949 666 ft 13 kts 250°
2026-05-05 20:48 41.97508 -87.91051 668 ft 11 kts 210°
2026-05-05 20:48 41.97447 -87.91014 668 ft 10 kts 140°
2026-05-05 20:49 41.97392 -87.90950 668 ft 12 kts 137°
2026-05-05 20:49 41.97370 -87.90928 668 ft 2 kts 162°
2026-05-05 20:49 41.97345 -87.90931 668 ft 9 kts 198°
2026-05-05 20:49 41.97295 -87.90996 667 ft 10 kts 228°
2026-05-05 20:50 41.97260 -87.91039 668 ft 0 kts 211°
2026-05-05 20:50 41.97260 -87.91041 668 ft 0 kts 222°
2026-05-05 20:50 41.97257 -87.91087 668 ft 8 kts 275°
2026-05-05 20:50 41.97257 -87.91089 668 ft 0 kts 275°
2026-05-05 20:51 41.97253 -87.91095 668 ft 1 kts 215°
2026-05-05 20:51 41.97244 -87.91085 667 ft 2 kts 133°
2026-05-05 20:52 41.97178 -87.90998 668 ft 31 kts 142°
2026-05-05 20:52 41.97046 -87.90792 667 ft 23 kts 110°
2026-05-05 20:52 41.97041 -87.90583 667 ft 22 kts 90°
2026-05-05 20:52 41.97039 -87.90378 667 ft 22 kts 90°
2026-05-05 20:53 41.97040 -87.90204 668 ft 17 kts 92°
2026-05-05 20:53 41.97041 -87.90089 668 ft 14 kts 89°
2026-05-05 20:53 41.97042 -87.89880 668 ft 28 kts 89°
2026-05-05 20:53 41.97038 -87.89641 669 ft 22 kts 111°
2026-05-05 20:54 41.97003 -87.89572 669 ft 6 kts 143°
2026-05-05 20:54 41.96965 -87.89558 670 ft 6 kts 179°
2026-05-05 20:54 41.96924 -87.89561 671 ft 6 kts 197°
2026-05-05 20:54 41.96905 -87.89607 671 ft 6 kts 259°
2026-05-05 20:55 41.96904 -87.89662 671 ft 0 kts 269°
2026-05-05 20:55 41.96904 -87.89666 671 ft 5 kts 270°
2026-05-05 20:55 41.96904 -87.90129 669 ft 102 kts 269°
2026-05-05 20:56 41.96904 -87.91501 775 ft 183 kts 270°
2026-05-05 20:56 41.96900 -87.93360 1461 ft 221 kts 270°
2026-05-05 20:56 41.96909 -87.95644 1941 ft 262 kts 271°
2026-05-05 20:56 41.97303 -87.98055 3096 ft 267 kts 297°
2026-05-05 20:57 41.98517 -87.99858 4750 ft 262 kts 322°
2026-05-05 20:57 42.00290 -88.01003 4967 ft 310 kts 345°
2026-05-05 20:57 42.02445 -88.01102 4978 ft 309 kts
2026-05-05 20:57 42.04364 -88.00031 5003 ft 296 kts 32°
2026-05-05 20:58 42.05976 -87.98395 4999 ft 283 kts 35°
2026-05-05 20:58 42.07487 -87.96770 5001 ft 273 kts 36°
2026-05-05 20:58 42.08964 -87.95168 5001 ft 270 kts 36°
2026-05-05 20:58 42.10412 -87.93588 5027 ft 272 kts 36°
2026-05-05 20:59 42.12042 -87.92281 5467 ft 273 kts